{"data":{"norad_id":66607,"intl_designator":"2025-270V","name":"STARLINK-35993","alt_names":[],"object_type":"PAYLOAD","status":"ACTIVE","operator":null,"country":"US","launch_date":"2025-11-22","launch_site_code":"AFETR","launch_vehicle":null,"mission":null,"orbit_class":"UNKNOWN","rcs_meters":null,"size_class":null,"mass_kg":null,"dimensions":null,"purposes":["comms"],"wikipedia_slug":null,"has_3d_model":false,"image_url":null,"decayed_at":null,"tle_current":{"epoch":"2026-05-24T23:44:40.551072Z","epoch_age_seconds":66246,"freshness":"FRESH","line1":"1 66607U 25270V   26144.98935823  .00021415  00000+0  78526-3 0  9998","line2":"2 66607  43.0037 345.3856 0001235 277.4225  82.6486 15.27588513 29277","mean_motion":15.27588513,"eccentricity":0.0001235,"inclination_deg":43.0037,"raan_deg":345.3856,"arg_perigee_deg":277.4225,"mean_anomaly_deg":82.6486,"bstar":0.00078526,"rev_number":2927,"period_min":94.266223380537,"perigee_km":482.17625183876,"apogee_km":483.87095850824,"semimajor_km":6861.1606051735,"source":"CELESTRAK","updated_at":"2026-05-25T13:38:21.291386Z"}}}